{"data":{"norad_id":68149,"intl_designator":"2026-049H","name":"STARLINK-36992","alt_names":[],"object_type":"PAYLOAD","status":"ACTIVE","operator":null,"country":"US","launch_date":"2026-03-13","launch_site_code":"AFWTR","launch_vehicle":null,"mission":null,"orbit_class":"UNKNOWN","rcs_meters":null,"size_class":null,"mass_kg":null,"dimensions":null,"purposes":["comms"],"wikipedia_slug":null,"has_3d_model":false,"image_url":null,"decayed_at":null,"tle_current":{"epoch":"2026-09-20T00:51:40.681728Z","epoch_age_seconds":95680,"freshness":"FRESH","line1":"1 68149U 26049H   26263.03588752  .00014086  00000+0  43772-3 0  9990","line2":"2 68149  97.2840 283.0564 0002007  90.2301 269.9172 15.33452038 29430","mean_motion":15.33452038,"eccentricity":0.0002007,"inclination_deg":97.284,"raan_deg":283.0564,"arg_perigee_deg":90.2301,"mean_anomaly_deg":269.9172,"bstar":0.00043772,"rev_number":2943,"period_min":93.905773660721,"perigee_km":464.14871201353,"apogee_km":466.89575683022,"semimajor_km":6843.6592344219,"source":"CELESTRAK","updated_at":"2026-09-20T09:00:43.792748Z"}}}